Tiempo cada hora Ali-Kuyu

Hoy, 31 Julio, Sábado

Tiempo Temperatura Precipitaciones Viento Presión Humedad
00:00 +25°C° 0 mm 3 mps 749 mmHg 52%
01:00 +24°C° 0 mm 3 mps 749 mmHg 55%
02:00 +24°C° 0 mm 3 mps 749 mmHg 57%
03:00 +23°C° 0 mm 2 mps 749 mmHg 59%
04:00 +23°C° 0 mm 2 mps 749 mmHg 61%
05:00 +24°C° 0 mm 2 mps 749 mmHg 63%
06:00 +24°C° 0 mm 1 mps 749 mmHg 64%
07:00 +25°C° 0 mm 2 mps 749 mmHg 58%
08:00 +27°C° 0 mm 2 mps 749 mmHg 52%
09:00 +29°C° 0 mm 3 mps 749 mmHg 44%
10:00 +31°C° 0 mm 2 mps 749 mmHg 39%
11:00 +34°C° 0 mm 2 mps 749 mmHg 33%
12:00 +35°C° 0 mm 2 mps 748 mmHg 28%
13:00 +36°C° 0 mm 2 mps 748 mmHg 26%
14:00 +37°C° 0 mm 2 mps 748 mmHg 25%
15:00 +37°C° 0 mm 2 mps 748 mmHg 23%
16:00 +37°C° 0 mm 3 mps 748 mmHg 24%
17:00 +37°C° 0 mm 3 mps 748 mmHg 24%
18:00 +36°C° 0 mm 3 mps 748 mmHg 25%
19:00 +35°C° 0 mm 4 mps 748 mmHg 29%
20:00 +33°C° 0 mm 4 mps 749 mmHg 32%
21:00 +30°C° 0 mm 4 mps 749 mmHg 36%
22:00 +29°C° 0 mm 4 mps 749 mmHg 40%
23:00 +28°C° 0 mm 3 mps 749 mmHg 45%

Mañana, 1 Agosto, Domingo

Tiempo Temperatura Precipitaciones Viento Presión Humedad
00:00 +27°C° 0 mm 3 mps 749 mmHg 50%
01:00 +27°C° 0 mm 3 mps 749 mmHg 53%
02:00 +26°C° 0 mm 2 mps 749 mmHg 55%
03:00 +25°C° 0 mm 2 mps 749 mmHg 58%
04:00 +26°C° 0 mm 2 mps 750 mmHg 59%
05:00 +26°C° 0 mm 2 mps 750 mmHg 59%
06:00 +26°C° 0 mm 1 mps 750 mmHg 59%
07:00 +27°C° 0 mm 2 mps 750 mmHg 55%
08:00 +29°C° 0 mm 2 mps 750 mmHg 51%
09:00 +31°C° 0 mm 2 mps 750 mmHg 46%
10:00 +32°C° 0 mm 2 mps 750 mmHg 43%
11:00 +35°C° 0 mm 2 mps 750 mmHg 39%
12:00 +36°C° 0 mm 2 mps 749 mmHg 35%
13:00 +37°C° 0 mm 3 mps 749 mmHg 33%
14:00 +38°C° 0 mm 3 mps 749 mmHg 30%
15:00 +39°C° 0 mm 3 mps 748 mmHg 27%
16:00 +38°C° 0 mm 4 mps 748 mmHg 28%
17:00 +37°C° 0 mm 5 mps 748 mmHg 29%
18:00 +38°C° 0 mm 6 mps 748 mmHg 30%
19:00 +35°C° 0.1 mm 5 mps 749 mmHg 32%
20:00 +33°C° 0.1 mm 5 mps 749 mmHg 34%
21:00 +30°C° 0.1 mm 4 mps 749 mmHg 37%
22:00 +29°C° 0 mm 4 mps 749 mmHg 38%
23:00 +29°C° 0 mm 3 mps 749 mmHg 40%

Pasado mañana, 2 Agosto, Lunes

Tiempo Temperatura Precipitaciones Viento Presión Humedad
00:00 +28°C° 0 mm 3 mps 749 mmHg 41%
01:00 +27°C° 0 mm 2 mps 749 mmHg 43%
02:00 +27°C° 0 mm 2 mps 749 mmHg 45%
03:00 +26°C° 0 mm 2 mps 749 mmHg 47%
04:00 +26°C° 0 mm 2 mps 749 mmHg 49%
05:00 +26°C° 0 mm 1 mps 749 mmHg 50%
06:00 +26°C° 0 mm 1 mps 750 mmHg 52%
07:00 +28°C° 0.1 mm 1 mps 750 mmHg 48%
08:00 +29°C° 0.1 mm 2 mps 750 mmHg 44%
09:00 +31°C° 0.1 mm 2 mps 750 mmHg 40%
10:00 +32°C° 0.1 mm 2 mps 750 mmHg 38%
11:00 +35°C° 0.1 mm 2 mps 750 mmHg 35%
12:00 +36°C° 0.1 mm 2 mps 749 mmHg 32%
13:00 +37°C° 0 mm 2 mps 749 mmHg 29%
14:00 +38°C° 0 mm 2 mps 749 mmHg 26%
15:00 +39°C° 0 mm 3 mps 748 mmHg 23%
16:00 +40°C° 0 mm 4 mps 748 mmHg 21%
17:00 +40°C° 0 mm 5 mps 749 mmHg 18%
18:00 +39°C° 0 mm 6 mps 749 mmHg 16%
19:00 +35°C° 0 mm 5 mps 749 mmHg 29%
20:00 +30°C° 0 mm 4 mps 749 mmHg 42%
21:00 +27°C° 0 mm 4 mps 750 mmHg 55%
22:00 +26°C° 0 mm 3 mps 750 mmHg 58%
23:00 +26°C° 0 mm 3 mps 749 mmHg 60%

3 Agosto, Martes

Tiempo Temperatura Precipitaciones Viento Presión Humedad
00:00 +25°C° 0 mm 2 mps 749 mmHg 63%
01:00 +25°C° 0 mm 2 mps 749 mmHg 64%
02:00 +25°C° 0 mm 1 mps 750 mmHg 64%
03:00 +24°C° 0 mm 1 mps 750 mmHg 65%
04:00 +25°C° 0 mm 1 mps 750 mmHg 63%
05:00 +25°C° 0 mm 2 mps 750 mmHg 62%
06:00 +26°C° 0 mm 2 mps 750 mmHg 60%
07:00 +28°C° 0 mm 2 mps 750 mmHg 53%
08:00 +30°C° 0 mm 2 mps 750 mmHg 46%
09:00 +32°C° 0 mm 2 mps 750 mmHg 39%
10:00 +34°C° 0 mm 2 mps 750 mmHg 35%
11:00 +35°C° 0 mm 1 mps 750 mmHg 30%
12:00 +37°C° 0 mm 1 mps 749 mmHg 25%
13:00 +37°C° 0 mm 1 mps 749 mmHg 24%
14:00 +39°C° 0 mm 1 mps 749 mmHg 22%
15:00 +40°C° 0 mm 2 mps 748 mmHg 20%
16:00 +39°C° 0 mm 1 mps 748 mmHg 20%
17:00 +39°C° 0 mm 1 mps 748 mmHg 21%
18:00 +39°C° 0 mm 1 mps 748 mmHg 22%
19:00 +36°C° 0 mm 1 mps 748 mmHg 24%
20:00 +36°C° 0 mm 2 mps 748 mmHg 26%
21:00 +34°C° 0 mm 2 mps 749 mmHg 28%
22:00 +32°C° 0 mm 2 mps 749 mmHg 32%
23:00 +31°C° 0 mm 2 mps 749 mmHg 36%

4 Agosto, Miércoles

Tiempo Temperatura Precipitaciones Viento Presión Humedad
00:00 +30°C° 0 mm 3 mps 749 mmHg 40%
01:00 +29°C° 0 mm 3 mps 749 mmHg 43%
02:00 +29°C° 0 mm 3 mps 749 mmHg 45%
03:00 +28°C° 0 mm 4 mps 749 mmHg 48%
04:00 +28°C° 0 mm 4 mps 749 mmHg 48%
05:00 +28°C° 0 mm 4 mps 750 mmHg 48%
06:00 +28°C° 0 mm 4 mps 750 mmHg 49%
07:00 +30°C° 0 mm 4 mps 750 mmHg 43%
08:00 +33°C° 0 mm 4 mps 750 mmHg 37%
09:00 +36°C° 0 mm 5 mps 750 mmHg 32%
10:00 +37°C° 0 mm 5 mps 750 mmHg 29%
11:00 +40°C° 0 mm 4 mps 750 mmHg 25%
12:00 +42°C° 0 mm 4 mps 750 mmHg 22%
13:00 +42°C° 0 mm 4 mps 750 mmHg 21%
14:00 +42°C° 0 mm 4 mps 749 mmHg 20%
15:00 +43°C° 0 mm 4 mps 749 mmHg 19%
16:00 +42°C° 0 mm 4 mps 749 mmHg 19%
17:00 +42°C° 0 mm 3 mps 749 mmHg 20%
18:00 +40°C° 0 mm 3 mps 749 mmHg 20%
19:00 +39°C° 0 mm 3 mps 749 mmHg 23%
20:00 +37°C° 0 mm 3 mps 749 mmHg 25%
21:00 +35°C° 0 mm 3 mps 749 mmHg 27%
22:00 +35°C° 0 mm 4 mps 749 mmHg 28%
23:00 +34°C° 0 mm 4 mps 750 mmHg 29%

5 Agosto, Jueves

Tiempo Temperatura Precipitaciones Viento Presión Humedad
00:00 +34°C° 0 mm 5 mps 750 mmHg 30%
01:00 +33°C° 0 mm 6 mps 750 mmHg 37%
02:00 +30°C° 0 mm 7 mps 750 mmHg 43%
03:00 +29°C° 0 mm 7 mps 751 mmHg 50%
04:00 +28°C° 0 mm 6 mps 752 mmHg 55%
05:00 +27°C° 0 mm 5 mps 752 mmHg 60%
06:00 +26°C° 0 mm 4 mps 753 mmHg 66%
07:00 +27°C° 0 mm 3 mps 753 mmHg 61%
08:00 +28°C° 0 mm 2 mps 753 mmHg 56%
09:00 +29°C° 0 mm 1 mps 753 mmHg 51%
10:00 +31°C° 0 mm 1 mps 753 mmHg 47%
11:00 +32°C° 0 mm 1 mps 753 mmHg 42%
12:00 +34°C° 0 mm 1 mps 752 mmHg 37%
13:00 +34°C° 0 mm 1 mps 752 mmHg 36%
14:00 +35°C° 0 mm 1 mps 751 mmHg 34%
15:00 +36°C° 0 mm 1 mps 751 mmHg 32%
16:00 +36°C° 0 mm 1 mps 751 mmHg 33%
17:00 +35°C° 0 mm 1 mps 751 mmHg 34%
18:00 +35°C° 0 mm 1 mps 751 mmHg 35%
19:00 +35°C° 0 mm 2 mps 751 mmHg 37%
20:00 +34°C° 0 mm 2 mps 751 mmHg 39%
21:00 +33°C° 0 mm 3 mps 751 mmHg 41%
22:00 +31°C° 0.1 mm 2 mps 751 mmHg 42%
23:00 +31°C° 0.1 mm 2 mps 750 mmHg 42%
Mostrar más

Necesitamos Su Consentimiento

Meteoprog y nuestros Proveedores de Servicios pueden almacenar y acceder a sus datos personales como cookies, identificadores de dispositivo u otras tecnologías similares de su dispositivo y procesar dichos datos para personalizar contenido y anuncios, además de ofrecer funciones de redes sociales y analizar el tráfico.

  • Almacenar y/o acceder a información en su dispositivo

    Se puede almacenar o acceder a cookies, identificadores de dispositivo u otra información de su dispositivo para los fines anteriormente indicados.

  • Anuncios y contenido personalizados, medición de anuncios y contenido, percepciones del público, y desarrollo de productos

    Los anuncios y el contenido pueden personalizarse en base a su perfil. Se pueden añadir más datos para personalizar mejor los anuncios y contenidos. Se puede medir el rendimiento de los anuncios y contenidos. Se puede obtener la percepción sobre el público que ha visto los anuncios y contenidos. Dichos datos pueden usarse para desarrollar o mejorar la experiencia del usuario, sistemas y software.

Al hacer clic en ‘Estoy De Acuerdo’ usted permitirá el uso de las cookies, identificadores de dispositivo, balizas web u otras tecnologías similares indicadas. Su configuración puede cambiarse desde el navegador de su dispositivo.

Para ciertos fines, los intereses legítimos pueden ser considerados por encima del consentimiento. Puede leer más sobre ello en nuestra Política de Privacidad y Cookies.